| time (UTC) | temp C | wind direction | speed KPH | gust KPH | rain 1hr cm | rain 24hr cm | rain mn cm | humidity % | barometer mb |
| 20260504173845 | 7 | 332 | 0.0 | 6.4 | 0.08 | 0.38 | 0.00 | 1 | 1014.4 |
| 20260504173345 | 7 | 328 | 3.2 | 6.4 | 0.08 | 0.38 | 0.00 | 1 | 1014.3 |
| 20260504172845 | 8 | 330 | 1.6 | 16.1 | 0.08 | 0.38 | 0.00 | 1 | 1014.2 |
| 20260504172345 | 8 | 324 | 0.0 | 4.8 | 0.08 | 0.38 | 0.00 | 1 | 1014.0 |
| 20260504171845 | 8 | 290 | 0.0 | 3.2 | 0.08 | 0.38 | 0.00 | 1 | 1013.9 |
| 20260504171345 | 7 | 285 | 1.6 | 9.7 | 0.08 | 0.38 | 0.00 | 1 | 1013.9 |
| 20260504170845 | 7 | 248 | 8.0 | 12.9 | 0.08 | 0.36 | 0.00 | 1 | 1014.1 |
| 20260504170345 | 8 | 276 | 1.6 | 14.5 | 0.08 | 0.36 | 0.00 | 1 | 1014.0 |
| 20260504160345 | 8 | 311 | 0.0 | 19.3 | 0.08 | 0.28 | 0.00 | 1 | 1013.6 |
| 20260504150845 | 12 | 338 | 4.8 | 12.9 | 0.00 | 0.25 | 0.00 | 44 | 1013.1 |
| 20260504150345 | 13 | 5 | 1.6 | 9.7 | 0.00 | 0.28 | 0.00 | 40 | 1013.1 |
| 20260504140845 | 11 | 230 | 0.0 | 11.3 | 0.00 | 0.28 | 0.00 | 35 | 1013.3 |
| 20260504140345 | 11 | 331 | 0.0 | 9.7 | 0.00 | 0.28 | 0.00 | 40 | 1013.2 |
| 20260504130345 | 13 | 263 | 4.8 | 14.5 | 0.00 | 0.28 | 0.00 | 47 | 1013.0 |
| 20260504110345 | 11 | 61 | 1.6 | 3.2 | 0.00 | 0.38 | 0.00 | 40 | 1013.6 |
| 20260504100345 | 10 | 282 | 0.0 | 8.0 | 0.00 | 0.38 | 0.00 | 18 | 1013.8 |
| 20260504081845 | 9 | 316 | 0.0 | 3.2 | 0.00 | 0.43 | 0.00 | 1 | 1013.4 |
| 20260504081345 | 8 | 311 | 0.0 | 3.2 | 0.00 | 0.46 | 0.00 | 1 | 1013.4 |
| 20260504080845 | 8 | 323 | 0.0 | 6.4 | 0.00 | 0.46 | 0.00 | 1 | 1013.4 |
| 20260504080345 | 8 | 267 | 0.0 | 8.0 | 0.00 | 0.46 | 0.00 | 1 | 1013.4 |
| 20260504070345 | 7 | 264 | 0.0 | 0.0 | 0.00 | 0.48 | 0.00 | 1 | 1163.8 |
| 20260504050345 | 6 | 303 | 0.0 | 0.0 | 0.00 | 0.46 | 0.00 | 1 | 1162.6 |
| 20260504045845 | 6 | 303 | 0.0 | 1.6 | 0.00 | 0.46 | 0.00 | 1 | 1162.6 |
| 20260504045345 | 6 | 302 | 1.6 | 3.2 | 0.00 | 0.46 | 0.00 | 1 | 1162.5 |
| 20260504044845 | 6 | 267 | 0.0 | 0.0 | 0.00 | 0.46 | 0.00 | 1 | 1162.6 |
| 20260504044345 | 6 | 267 | 0.0 | 1.6 | 0.00 | 0.46 | 0.00 | 1 | 1162.6 |
| 20260504043845 | 6 | 288 | 0.0 | 4.8 | 0.00 | 0.46 | 0.00 | 1 | 1162.5 |
| 20260504043345 | 6 | 288 | 0.0 | 4.8 | 0.00 | 0.46 | 0.00 | 1 | 1162.6 |
| 20260504042845 | 6 | 266 | 0.0 | 3.2 | 0.00 | 0.46 | 0.00 | 1 | 1162.6 |
| 20260504042345 | 6 | 283 | 1.6 | 3.2 | 0.00 | 0.46 | 0.00 | 1 | 1162.6 |
| 20260504041845 | 6 | 285 | 0.0 | 3.2 | 0.00 | 0.46 | 0.00 | 1 | 1162.6 |
| 20260504041345 | 6 | 274 | 0.0 | 1.6 | 0.00 | 0.46 | 0.00 | 1 | 1162.6 |
| 20260504040845 | 6 | 226 | 0.0 | 1.6 | 0.00 | 0.46 | 0.00 | 1 | 1162.7 |
| 20260504040345 | 7 | 271 | 0.0 | 1.6 | 0.00 | 0.46 | 0.00 | 1 | 1162.7 |
| 20260504035845 | 7 | 271 | 0.0 | 0.0 | 0.00 | 0.48 | 0.00 | 1 | 1162.7 |
| 20260504035345 | 7 | 279 | 0.0 | 0.0 | 0.00 | 0.48 | 0.00 | 1 | 1162.7 |
| 20260504034845 | 7 | 279 | 0.0 | 1.6 | 0.00 | 0.48 | 0.00 | 1 | 1162.8 |
| 20260504034345 | 7 | 267 | 0.0 | 1.6 | 0.00 | 0.48 | 0.00 | 1 | 1162.7 |
| 20260504033845 | 7 | 270 | 0.0 | 3.2 | 0.00 | 0.48 | 0.00 | 1 | 1162.7 |
| 20260504033345 | 7 | 272 | 0.0 | 1.6 | 0.00 | 0.48 | 0.00 | 1 | 1162.7 |
| 20260504032845 | 7 | 276 | 1.6 | 1.6 | 0.00 | 0.48 | 0.00 | 1 | 1162.7 |
| 20260504032345 | 7 | 319 | 0.0 | 3.2 | 0.00 | 0.48 | 0.00 | 1 | 1162.7 |
| 20260504031845 | 7 | 319 | 0.0 | 0.0 | 0.00 | 0.48 | 0.00 | 1 | 1162.8 |
| 20260504031345 | 7 | 287 | 0.0 | 0.0 | 0.00 | 0.48 | 0.00 | 1 | 1162.8 |
| 20260504030845 | 7 | 287 | 0.0 | 0.0 | 0.00 | 0.48 | 0.00 | 1 | 1162.7 |
| 20260504030345 | 7 | 270 | 0.0 | 0.0 | 0.00 | 0.51 | 0.00 | 1 | 1162.8 |
| 20260504025845 | 7 | 271 | 0.0 | 0.0 | 0.00 | 0.51 | 0.00 | 1 | 1162.8 |
| 20260504025345 | 7 | 270 | 0.0 | 0.0 | 0.00 | 0.51 | 0.00 | 1 | 1162.9 |
| 20260504024845 | 7 | 270 | 0.0 | 0.0 | 0.00 | 0.51 | 0.00 | 1 | 1162.9 |
| 20260504024345 | 7 | 271 | 0.0 | 0.0 | 0.00 | 0.51 | 0.00 | 1 | 1162.9 |
| 20260504023845 | 7 | 240 | 0.0 | 1.6 | 0.00 | 0.51 | 0.00 | 1 | 1162.8 |
| 20260504023345 | 7 | 306 | 0.0 | 1.6 | 0.00 | 0.51 | 0.00 | 1 | 1162.8 |
| 20260504022845 | 7 | 306 | 0.0 | 1.6 | 0.00 | 0.51 | 0.00 | 1 | 1162.7 |
| 20260504022345 | 7 | 262 | 0.0 | 3.2 | 0.00 | 0.51 | 0.00 | 1 | 1162.8 |
| 20260504021845 | 7 | 251 | 0.0 | 3.2 | 0.00 | 0.51 | 0.00 | 1 | 1162.8 |
| 20260504021346 | 7 | 319 | 0.0 | 3.2 | 0.00 | 0.51 | 0.00 | 1 | 1162.8 |
| 20260504020845 | 7 | 319 | 0.0 | 0.0 | 0.00 | 0.51 | 0.00 | 1 | 1162.8 |
| 20260504020345 | 7 | 319 | 0.0 | 0.0 | 0.00 | 0.51 | 0.00 | 1 | 1162.8 |
| 20260504015845 | 7 | 319 | 0.0 | 1.6 | 0.00 | 0.51 | 0.00 | 1 | 1162.8 |
| 20260504015345 | 7 | 311 | 0.0 | 3.2 | 0.00 | 0.51 | 0.00 | 1 | 1162.9 |
| 20260504014845 | 7 | 261 | 0.0 | 0.0 | 0.00 | 0.51 | 0.00 | 1 | 1162.9 |
| 20260504014345 | 7 | 285 | 0.0 | 4.8 | 0.00 | 0.51 | 0.00 | 1 | 1162.9 |
| 20260504013845 | 7 | 332 | 0.0 | 4.8 | 0.00 | 0.51 | 0.00 | 1 | 1162.9 |
| 20260504013345 | 7 | 254 | 0.0 | 0.0 | 0.00 | 0.51 | 0.00 | 1 | 1162.9 |
| 20260504012845 | 7 | 254 | 0.0 | 0.0 | 0.00 | 0.51 | 0.00 | 1 | 1162.9 |
| 20260504012345 | 7 | 253 | 0.0 | 0.0 | 0.00 | 0.51 | 0.00 | 1 | 1162.9 |
| 20260504011845 | 7 | 253 | 0.0 | 1.6 | 0.00 | 0.51 | 0.00 | 1 | 1162.9 |
| 20260504011345 | 7 | 316 | 0.0 | 3.2 | 0.00 | 0.51 | 0.00 | 1 | 1162.9 |
| 20260504010845 | 7 | 278 | 0.0 | 4.8 | 0.00 | 0.51 | 0.00 | 1 | 1163.0 |
| 20260504010345 | 7 | 267 | 0.0 | 1.6 | 0.03 | 0.51 | 0.00 | 1 | 1163.0 |
| 20260504005845 | 7 | 245 | 0.0 | 1.6 | 0.03 | 0.51 | 0.00 | 1 | 1162.9 |
| 20260504005345 | 7 | 257 | 0.0 | 4.8 | 0.03 | 0.51 | 0.00 | 1 | 1163.0 |
| 20260504004845 | 7 | 268 | 0.0 | 3.2 | 0.05 | 0.51 | 0.00 | 1 | 1163.0 |
| 20260504004345 | 7 | 272 | 1.6 | 1.6 | 0.05 | 0.51 | 0.00 | 1 | 1163.0 |
| 20260504003845 | 7 | 272 | 0.0 | 1.6 | 0.05 | 0.51 | 0.00 | 1 | 1163.0 |
| 20260504003345 | 7 | 288 | 0.0 | 1.6 | 0.08 | 0.51 | 0.00 | 1 | 1163.1 |
| 20260504002845 | 7 | 266 | 0.0 | 0.0 | 0.05 | 0.48 | 0.00 | 1 | 1163.1 |
| 20260504002345 | 7 | 245 | 0.0 | 0.0 | 0.08 | 0.48 | 0.00 | 1 | 1163.1 |
| 20260504001845 | 7 | 245 | 0.0 | 6.4 | 0.08 | 0.48 | 0.00 | 1 | 1163.1 |
| 20260504001345 | 7 | 269 | 0.0 | 0.0 | 0.08 | 0.48 | 0.00 | 1 | 1163.1 |
| 20260504000845 | 7 | 271 | 0.0 | 1.6 | 0.08 | 0.48 | 0.00 | 1 | 1163.1 |
| 20260504000346 | 7 | 285 | 0.0 | 1.6 | 0.05 | 0.46 | 0.00 | 1 | 1163.1 |
| 20260503235845 | 7 | 258 | 0.0 | 1.6 | 0.05 | 0.46 | 0.00 | 1 | 1163.1 |
| 20260503235345 | 8 | 262 | 1.6 | 0.0 | 0.05 | 0.46 | 0.00 | 1 | 1163.1 |
| 20260503234845 | 8 | 262 | 0.0 | 1.6 | 0.03 | 0.46 | 0.00 | 1 | 1163.1 |
| 20260503234345 | 8 | 276 | 0.0 | 1.6 | 0.03 | 0.46 | 0.00 | 1 | 1163.1 |
| 20260503233845 | 8 | 256 | 0.0 | 0.0 | 0.03 | 0.46 | 0.00 | 1 | 1163.1 |
| 20260503233345 | 8 | 256 | 0.0 | 1.6 | 0.00 | 0.43 | 0.00 | 1 | 1163.1 |
| 20260503232845 | 8 | 264 | 0.0 | 1.6 | 0.00 | 0.43 | 0.00 | 1 | 1163.1 |
| 20260503232345 | 8 | 267 | 0.0 | 0.0 | 0.00 | 0.41 | 0.00 | 1 | 1163.1 |
| 20260503231845 | 8 | 267 | 0.0 | 0.0 | 0.00 | 0.41 | 0.00 | 1 | 1163.1 |
| 20260503231345 | 8 | 274 | 0.0 | 0.0 | 0.00 | 0.41 | 0.00 | 1 | 1163.1 |
| 20260503230845 | 8 | 274 | 0.0 | 0.0 | 0.00 | 0.41 | 0.00 | 1 | 1163.1 |
| 20260503230345 | 8 | 305 | 0.0 | 1.6 | 0.00 | 0.41 | 0.00 | 1 | 1163.1 |
| 20260503225845 | 8 | 271 | 0.0 | 1.6 | 0.00 | 0.41 | 0.00 | 1 | 1163.2 |
| 20260503225345 | 8 | 271 | 1.6 | 0.0 | 0.00 | 0.41 | 0.00 | 1 | 1163.2 |
| 20260503224845 | 8 | 255 | 0.0 | 0.0 | 0.00 | 0.41 | 0.00 | 1 | 1163.1 |
| 20260503224345 | 8 | 250 | 0.0 | 4.8 | 0.00 | 0.41 | 0.00 | 1 | 1163.2 |
| 20260503223845 | 8 | 274 | 3.2 | 4.8 | 0.00 | 0.41 | 0.00 | 1 | 1163.2 |
| 20260503223345 | 8 | 304 | 0.0 | 3.2 | 0.00 | 0.41 | 0.00 | 1 | 1163.2 |
| 20260503222845 | 8 | 297 | 0.0 | 6.4 | 0.00 | 0.41 | 0.00 | 1 | 1163.2 |
| 20260503222345 | 8 | 285 | 0.0 | 4.8 | 0.00 | 0.41 | 0.00 | 1 | 1163.1 |
| 20260503221845 | 8 | 274 | 1.6 | 4.8 | 0.00 | 0.41 | 0.00 | 1 | 1163.1 |
| 20260503221345 | 8 | 269 | 1.6 | 3.2 | 0.00 | 0.41 | 0.00 | 1 | 1163.2 |
| 20260503220845 | 8 | 266 | 1.6 | 4.8 | 0.00 | 0.43 | 0.00 | 1 | 1163.1 |
| 20260503220345 | 8 | 276 | 1.6 | 3.2 | 0.00 | 0.43 | 0.00 | 1 | 1163.1 |
| 20260503215845 | 8 | 273 | 0.0 | 3.2 | 0.00 | 0.43 | 0.00 | 1 | 1163.0 |
| 20260503215345 | 8 | 263 | 3.2 | 4.8 | 0.00 | 0.43 | 0.00 | 1 | 1163.0 |
| 20260503214845 | 8 | 264 | 1.6 | 3.2 | 0.00 | 0.43 | 0.00 | 1 | 1163.1 |
| 20260503214345 | 8 | 265 | 3.2 | 3.2 | 0.00 | 0.43 | 0.00 | 1 | 1163.1 |
| 20260503213845 | 8 | 295 | 1.6 | 3.2 | 0.00 | 0.43 | 0.00 | 1 | 1163.1 |
| 20260503213345 | 8 | 298 | 0.0 | 3.2 | 0.00 | 0.43 | 0.00 | 1 | 1163.1 |
| 20260503212845 | 7 | 293 | 1.6 | 1.6 | 0.00 | 0.43 | 0.00 | 1 | 1163.0 |
| 20260503212345 | 8 | 265 | 0.0 | 0.0 | 0.00 | 0.43 | 0.00 | 1 | 1163.1 |
| 20260503211845 | 8 | 265 | 0.0 | 3.2 | 0.00 | 0.43 | 0.00 | 1 | 1163.1 |
| 20260503211345 | 7 | 257 | 0.0 | 3.2 | 0.00 | 0.43 | 0.00 | 1 | 1163.1 |
| 20260503210845 | 7 | 274 | 1.6 | 3.2 | 0.00 | 0.43 | 0.00 | 1 | 1163.0 |
| 20260503210345 | 8 | 252 | 1.6 | 3.2 | 0.00 | 0.43 | 0.00 | 1 | 1162.9 |
| 20260503205845 | 8 | 287 | 0.0 | 0.0 | 0.00 | 0.43 | 0.00 | 1 | 1162.9 |
| 20260503205345 | 8 | 287 | 0.0 | 3.2 | 0.00 | 0.43 | 0.00 | 1 | 1162.8 |
| 20260503204845 | 8 | 277 | 0.0 | 4.8 | 0.00 | 0.43 | 0.00 | 1 | 1162.6 |
| 20260503204345 | 8 | 288 | 0.0 | 3.2 | 0.00 | 0.43 | 0.00 | 1 | 1162.6 |
| 20260503203845 | 8 | 273 | 0.0 | 4.8 | 0.00 | 0.43 | 0.00 | 1 | 1162.5 |
| 20260503203346 | 8 | 276 | 0.0 | 3.2 | 0.00 | 0.43 | 0.00 | 1 | 1162.5 |
| 20260503202845 | 8 | 277 | 1.6 | 3.2 | 0.00 | 0.43 | 0.00 | 1 | 1162.4 |
| 20260503202345 | 8 | 277 | 0.0 | 3.2 | 0.00 | 0.43 | 0.00 | 1 | 1162.3 |
| 20260503201846 | 8 | 252 | 0.0 | 1.6 | 0.00 | 0.43 | 0.00 | 1 | 1162.3 |
| 20260503201345 | 8 | 293 | 0.0 | 0.0 | 0.00 | 0.43 | 0.00 | 1 | 1162.0 |
| 20260503200845 | 8 | 293 | 0.0 | 1.6 | 0.00 | 0.43 | 0.00 | 1 | 1161.9 |
| 20260503200345 | 8 | 285 | 0.0 | 1.6 | 0.00 | 0.43 | 0.00 | 1 | 1161.9 |
| 20260503195845 | 8 | 262 | 0.0 | 3.2 | 0.00 | 0.43 | 0.00 | 1 | 1161.8 |
| 20260503195345 | 8 | 260 | 0.0 | 1.6 | 0.00 | 0.46 | 0.00 | 1 | 1161.7 |
| 20260503194845 | 8 | 258 | 0.0 | 0.0 | 0.00 | 0.46 | 0.00 | 1 | 1161.8 |
| 20260503194345 | 8 | 293 | 0.0 | 0.0 | 0.00 | 0.46 | 0.00 | 1 | 1192.7 |
| 20260503193845 | 8 | 293 | 0.0 | 0.0 | 0.00 | 0.46 | 0.00 | 1 | 1489.0 |
| 20260503193346 | 8 | 293 | 0.0 | 0.0 | 0.00 | 0.46 | 0.00 | 1 | 1012.2 |
| 20260503192845 | 8 | 293 | 0.0 | 0.0 | 0.00 | 0.46 | 0.00 | 1 | 1012.2 |
| 20260503192346 | 8 | 293 | 0.0 | 0.0 | 0.00 | 0.46 | 0.00 | 1 | 1012.1 |
| 20260503191847 | 8 | 293 | 0.0 | 3.2 | 0.03 | 0.48 | 0.00 | 1 | 1012.1 |
| 20260503191345 | 8 | 311 | 0.0 | 4.8 | 0.05 | 0.48 | 0.00 | 1 | 1012.0 |
| 20260503190845 | 8 | 264 | 0.0 | 0.0 | 0.08 | 0.51 | 0.00 | 1 | 1011.9 |
| 20260503190345 | 8 | 263 | 0.0 | 0.0 | 0.08 | 0.51 | 0.00 | 1 | 1011.9 |
| 20260503185845 | 8 | 263 | 0.0 | 3.2 | 0.08 | 0.51 | 0.00 | 1 | 1011.9 |
| 20260503185345 | 8 | 281 | 0.0 | 1.6 | 0.08 | 0.51 | 0.00 | 1 | 1011.9 |
| 20260503184846 | 8 | 274 | 0.0 | 3.2 | 0.08 | 0.51 | 0.00 | 1 | 1011.9 |
| 20260503184345 | 9 | 295 | 0.0 | 9.7 | 0.08 | 0.51 | 0.00 | 1 | 1011.8 |
| 20260503183845 | 9 | 308 | 6.4 | 8.0 | 0.08 | 0.51 | 0.00 | 1 | 1011.9 |
| 20260503183345 | 9 | 295 | 0.0 | 3.2 | 0.05 | 0.51 | 0.00 | 1 | 1012.0 |
| 20260503182845 | 9 | 262 | 0.0 | 0.0 | 0.05 | 0.51 | 0.00 | 1 | 1012.0 |
| 20260503182345 | 10 | 252 | 0.0 | 3.2 | 0.05 | 0.51 | 0.00 | 1 | 1012.0 |
| 20260503181845 | 10 | 248 | 0.0 | 3.2 | 0.03 | 0.48 | 0.00 | 1 | 1011.9 |
| 20260503181346 | 10 | 278 | 1.6 | 4.8 | 0.00 | 0.46 | 0.00 | 1 | 1011.8 |
| 20260503180845 | 10 | 292 | 0.0 | 8.0 | 0.00 | 0.46 | 0.00 | 1 | 1011.7 |
| 20260503180345 | 10 | 292 | 3.2 | 6.4 | 0.00 | 0.46 | 0.00 | 1 | 1011.6 |
| 20260503175845 | 11 | 327 | 4.8 | 4.8 | 0.00 | 0.46 | 0.00 | 1 | 1011.6 |
| 20260503175347 | 11 | 323 | 0.0 | 3.2 | 0.00 | 0.46 | 0.00 | 1 | 1011.6 |
| 20260503174845 | 11 | 319 | 0.0 | 6.4 | 0.00 | 0.46 | 0.00 | 1 | 1011.6 |
| 20260503174345 | 11 | 333 | 0.0 | 4.8 | 0.00 | 0.46 | 0.00 | 1 | 1011.6 |